Fort Leonard Wood, MO

6:32 AM CST on November 18, 2017 (GMT -0600)
Waynesville Regional At Forney Field

Weather History for KTBN - February, 2014

Change the Weather History Date:

Sunday, February 16, 2014

  Actual Average Record
Temperature  
Mean Temperature 33 °F -  
Max Temperature 39 °F 46 °F 73 °F (2011)
Min Temperature 27 °F 32 °F 6 °F (2007)
Degree Days  
Heating Degree Days 32    
Moisture  
Dew Point 32 °F    
Average Humidity 93    
Maximum Humidity 100    
Minimum Humidity 73    
Precipitation  
Precipitation 0.00 in - - ()
Sea Level Pressure  
Sea Level Pressure 30.13 in    
Wind  
Wind Speed 6 mph (NE)    
Max Wind Speed 15 mph    
Max Gust Speed -    
Visibility 10 miles    
Events      
Averages and records for this station are not official NWS values.
T = Trace of Precipitation, MM = Missing Value Source: NWS Daily Summary

Daily Weather History Graph

Daily Weather History Graph

Search for Another Location

Airport or City:

Trip Planner

Search our weather history database for the weather conditions in past years. The results will help you decide how hot, cold, wet, or windy it might be!

Date:

Astronomy

Feb. 16, 2014 Rise Set
Actual Time 6:56 AM CST 5:48 PM CST
Civil Twilight 6:30 AM CST 6:15 PM CST
Nautical Twilight 5:59 AM CST 6:46 PM CST
Astronomical Twilight 5:29 AM CST 7:16 PM CST
Moon 7:43 PM CST (2/16) 7:29 AM CST (2/16)
Length of Visible Light 11h 45m
Length of Day
10h 51m
Full, 97% of the Moon is Illuminated
Feb 16
Full
Feb 22
Last Quarter
Mar 1
New
Mar 8
First Quarter
Mar 16
Full

Hourly Weather History & Observations

Time (CST) Temp. Windchill Dew Point Humidity Pressure Visibility Wind Dir Wind Speed Gust Speed Precip Events Conditions
12:58 AM 33.1 °F 27.7 °F 27.9 °F 81% 30.04 in 10.0 mi West 5.8 mph - N/A   Clear
1:58 AM 35.1 °F 31.0 °F 30.7 °F 84% 30.04 in 10.0 mi WNW 4.6 mph - N/A   Clear
2:58 AM 34.5 °F 28.6 °F 31.8 °F 90% 30.06 in 10.0 mi NW 6.9 mph - N/A   Clear
3:58 AM 32.5 °F 27.1 °F 32.4 °F 99% 30.06 in 10.0 mi NNW 5.8 mph - N/A   Clear
4:58 AM 30.7 °F 24.9 °F 30.6 °F 99% 30.09 in 10.0 mi NW 5.8 mph - N/A   Clear
5:58 AM 27.7 °F 20.4 °F 27.7 °F 100% 30.10 in 10.0 mi NNW 6.9 mph - N/A   Clear
6:53 AM 28.4 °F - 28.4 °F 100% 30.10 in 10.0 mi WNW 2.3 mph - N/A   Mostly Cloudy
6:58 AM 27.9 °F - 27.9 °F 100% 30.13 in 10.0 mi Calm Calm - N/A   Mostly Cloudy
7:58 AM 29.3 °F 25.6 °F 29.3 °F 100% 30.17 in 10.0 mi NNW 3.5 mph - N/A   Overcast
8:08 AM 32.0 °F 26.4 °F 32.0 °F 100% 30.13 in 10.0 mi North 5.8 mph - N/A   Overcast
8:58 AM 30.9 °F 24.3 °F 30.9 °F 100% 30.19 in 10.0 mi North 6.9 mph - N/A   Overcast
9:58 AM 31.3 °F 23.9 °F 31.3 °F 100% 30.21 in 10.0 mi NNE 8.1 mph - N/A   Overcast
10:58 AM 31.6 °F 27.0 °F 31.6 °F 100% 30.24 in 10.0 mi East 4.6 mph - N/A   Overcast
11:58 AM 32.7 °F 28.3 °F 32.7 °F 100% 30.23 in 10.0 mi East 4.6 mph - N/A   Overcast
12:03 PM 32.0 °F 27.5 °F 32.0 °F 100% 30.19 in 10.0 mi NNW 4.6 mph - N/A   Overcast
12:58 PM 34.5 °F 30.4 °F 34.2 °F 99% 30.20 in 10.0 mi Variable 4.6 mph - N/A   Overcast
1:18 PM 33.8 °F 29.6 °F 33.8 °F 100% 30.15 in 10.0 mi NNE 4.6 mph - N/A   Mostly Cloudy
1:58 PM 35.2 °F 30.3 °F 33.1 °F 92% 30.17 in 10.0 mi NNE 5.8 mph - N/A   Mostly Cloudy
2:58 PM 37.8 °F 33.3 °F 31.6 °F 79% 30.15 in 10.0 mi ENE 5.8 mph - N/A   Mostly Cloudy
3:58 PM 39.7 °F 36.5 °F 31.6 °F 73% 30.16 in 10.0 mi East 4.6 mph - N/A   Overcast
4:58 PM 38.5 °F 32.7 °F 31.5 °F 76% 30.15 in 10.0 mi ESE 8.1 mph - N/A   Overcast
5:58 PM 37.4 °F 32.8 °F 31.5 °F 79% 30.14 in 10.0 mi East 5.8 mph - N/A   Overcast
6:58 PM 35.8 °F 29.4 °F 32.0 °F 86% 30.12 in 10.0 mi East 8.1 mph - N/A   Scattered Clouds
7:58 PM 35.1 °F 27.9 °F 32.5 °F 91% 30.11 in 10.0 mi East 9.2 mph - N/A   Mostly Cloudy
8:58 PM 35.8 °F 28.8 °F 32.4 °F 87% 30.09 in 10.0 mi ESE 9.2 mph - N/A   Overcast
9:58 PM 37.0 °F 28.1 °F 33.1 °F 86% 30.08 in 10.0 mi ESE 15.0 mph - N/A   Overcast
10:58 PM 37.0 °F 28.9 °F 34.7 °F 91% 30.08 in 10.0 mi SE 12.7 mph - N/A   Overcast
11:58 PM 36.5 °F 27.8 °F 36.0 °F 98% 30.06 in 10.0 mi SE 13.8 mph - N/A   Overcast